Wind_Speed
59 60 62 62 61 61 60 61 62 63 64 65 65 65 65 64 64 64 64 64 65 62 61 62 62 65 71 75 78 78 78 78 77 77 78 79 81 80 79 77 75 74 73 72 71 70 70 68 66 62 62 64 56 48 49 50 52 53 53 54 55 55 56 55 55 55 56 58 59 61 62 64 65 67 68 69 71 72 73 75 77 78 79 81 82 83
59 60 61 61 61 62 62 63 64 65 66 66 66 64 64 65 63 62 63 64 64 61 60 63 64 68 74 76 78 80 80 81 80 80 81 82 82 81 79 77 75 74 73 72 71 70 69 67 64 60 61 61 53 48 50 52 54 55 55 56 56 57 57 57 58 58 59 61 62 64 65 67 68 70 71 73 74 75 76 78 80 82 83 84 86 87
58 60 61 62 63 64 65 66 67 67 67 66 65 64 65 65 63 62 63 63 63 61 62 64 66 70 76 78 80 81 81 82 82 83 84 84 83 81 79 77 75 73 72 71 70 69 67 64 61 60 61 58 51 50 52 54 56 56 57 58 58 58 59 60 61 62 63 64 65 67 68 70 72 73 75 76 77 78 79 81 83 84 86 88 89 91
60 62 64 64 65 66 66 67 68 67 66 65 65 64 64 63 63 63 63 63 63 64 65 67 69 72 76 80 81 82 82 82 83 84 85 84 82 80 77 76 74 72 70 69 68 66 63 59 57 57 57 55 52 53 55 56 57 58 58 59 60 61 62 64 65 66 67 68 70 71 72 74 75 76 78 79 81 82 83 84 85 87 89 91 93 95
62 64 65 66 66 66 66 67 67 66 64 64 64 64 63 63 64 64 64 64 65 67 69 71 72 72 77 81 81 81 83 84 84 84 83 81 79 77 76 74 72 70 68 67 66 63 59 55 54 54 54 54 55 56 57 57 59 59 60 61 62 65 66 68 69 71 72 73 75 76 77 78 79 80 82 83 85 86 87 88 89 91 92 94 96 98
64 65 66 66 67 67 66 66 66 65 63 63 64 65 64 64 65 65 66 66 67 69 73 76 75 72 77 82 80 81 84 85 84 82 80 78 76 74 72 70 69 69 67 66 64 60 56 53 52 52 53 55 57 58 58 59 60 62 63 64 67 69 70 72 73 74 76 77 79 80 81 82 83 85 86 87 89 90 92 93 94 95 96 97 98 99
65 65 66 67 67 66 66 65 66 65 63 63 65 66 67 66 67 67 68 69 70 72 75 80 79 74 76 81 82 83 85 84 82 79 77 75 73 70 69 68 68 68 66 64 61 58 54 53 52 54 55 57 58 59 60 61 63 65 66 68 71 72 74 76 77 78 79 81 82 84 85 87 88 89 90 92 93 95 96 97 98 100 100 100 99 99
64 65 66 66 66 65 65 65 66 66 65 65 66 67 68 68 68 69 70 71 73 74 77 82 83 79 77 80 83 84 85 83 80 77 75 73 70 69 68 67 66 65 64 62 59 56 55 55 56 57 58 60 61 62 63 65 67 69 70 72 74 76 78 80 81 82 84 85 86 88 89 90 92 94 95 96 98 99 101 101 102 103 102 101 101 100
64 64 64 65 65 65 65 66 67 67 67 67 68 69 69 70 70 71 72 74 75 77 80 84 84 81 80 81 82 82 81 80 78 75 72 70 69 68 67 65 63 61 60 59 57 57 57 59 60 61 62 63 65 66 68 69 71 73 74 76 79 81 83 84 85 87 89 90 92 93 94 95 97 98 100 101 102 104 104 105 105 105 104 104 103 104
62 63 64 64 65 65 66 67 67 68 68 68 69 69 71 71 71 72 74 76 78 80 82 84 83 83 83 83 81 80 78 76 74 72 70 69 68 66 64 61 59 57 57 58 58 58 60 61 63 64 65 67 69 70 72 74 75 77 79 81 83 85 87 89 90 91 93 96 98 99 101 101 102 103 104 105 106 107 106 106 105 106 106 106 107 108
61 62 63 64 65 66 67 68 69 68 69 69 70 70 72 72 73 74 76 79 81 82 83 83 84 84 84 82 79 78 75 71 69 69 69 67 65 62 59 57 57 57 58 60 60 61 62 63 65 66 68 70 73 75 76 78 79 81 83 85 87 89 91 93 94 96 98 100 102 104 106 107 107 108 108 108 108 108 107 107 107 108 110 111 112 114
62 63 64 65 66 67 68 69 69 69 70 70 71 72 72 73 75 76 79 82 83 83 83 84 85 85 83 79 75 73 72 69 67 66 65 63 60 59 58 58 59 60 61 62 63 64 64 66 67 69 72 74 76 78 80 81 83 84 86 88 90 92 94 96 99 100 102 104 106 107 109 111 112 112 112 111 110 110 110 110 111 113 115 117 118 119
63 65 65 66 67 68 68 69 70 70 71 71 72 73 73 75 77 78 81 83 83 83 83 84 84 82 79 75 72 69 68 67 65 62 60 59 58 59 60 61 62 63 64 66 67 68 69 71 73 74 76 79 81 83 84 85 87 89 91 93 94 96 98 101 103 105 106 108 110 111 112 113 114 114 114 114 114 114 115 115 116 117 119 120 122 123
64 66 67 68 68 69 69 69 70 71 71 72 73 74 76 79 80 80 80 81 82 82 82 82 80 77 74 71 69 67 64 63 61 60 59 60 61 63 64 65 66 67 69 70 72 73 75 77 78 80 82 84 86 88 89 90 92 94 96 97 99 101 103 105 107 109 110 111 112 113 114 114 114 115 115 116 118 120 121 121 121 122 122 123 123 123
65 66 67 68 68 69 69 70 70 71 72 72 74 76 79 81 82 80 80 80 80 79 78 77 75 72 71 68 64 62 60 60 60 60 61 63 66 68 68 70 71 73 74 75 77 79 81 83 84 86 88 90 92 93 94 95 97 99 101 102 104 105 107 109 110 111 112 112 113 113 114 115 117 118 119 120 122 123 125 125 125 125 125 125 124 123
63 64 66 67 67 68 69 70 71 72 72 73 75 78 79 81 81 81 80 79 77 74 72 72 71 68 66 62 59 58 58 60 62 63 65 68 70 72 73 75 77 78 79 81 83 85 87 89 90 92 94 95 96 98 99 100 102 104 106 107 108 109 110 111 111 112 113 114 115 116 118 120 121 122 123 124 125 125 126 126 126 125 124 124 123 121
61 61 63 64 65 67 69 70 71 72 74 75 77 79 80 80 80 80 78 76 74 70 66 65 64 62 59 57 56 57 59 62 64 67 70 72 74 76 77 79 81 82 84 86 88 89 91 93 95 96 98 99 101 102 104 106 107 108 109 110 110 111 112 113 114 115 117 118 120 121 123 124 125 126 126 126 125 125 124 123 122 121 120 119 118 117
57 56 59 62 63 66 68 70 72 74 76 77 79 80 80 79 78 76 73 69 66 62 58 57 58 59 59 58 58 60 62 64 67 70 73 75 77 79 81 83 85 87 88 90 91 93 94 96 98 100 102 104 106 107 108 109 110 111 112 112 113 114 115 117 119 120 121 123 124 125 126 127 127 127 126 125 124 122 121 119 118 117 115 114 114 113
55 52 55 61 64 66 69 71 73 75 77 78 79 79 78 76 73 69 65 61 58 55 54 55 58 60 62 63 64 65 66 69 71 73 76 78 80 83 85 87 89 91 92 94 95 97 99 101 104 105 107 108 109 110 110 111 112 113 115 116 118 119 121 122 123 124 124 125 126 126 125 125 125 124 123 122 120 119 118 116 115 113 112 111 110 110
55 53 55 61 65 68 70 71 73 74 76 77 76 75 73 69 65 61 59 59 58 57 57 58 61 62 65 68 69 69 71 73 75 77 80 82 84 86 88 90 93 95 97 99 101 103 104 105 106 107 108 109 110 111 113 114 116 118 120 121 123 124 125 126 126 126 125 125 125 124 123 122 121 121 119 118 117 116 115 113 112 111 110 109 108 107
57 57 58 62 66 68 70 71 72 72 73 72 70 67 63 60 58 57 59 62 63 63 63 65 66 67 68 71 73 74 76 78 80 82 84 86 89 91 93 95 97 99 101 102 103 104 105 106 107 108 110 111 113 115 117 119 121 123 124 125 126 127 127 127 127 126 126 125 124 123 122 120 119 118 117 116 115 113 112 110 109 108 107 106 106 105
59 60 61 64 67 70 71 71 70 68 66 63 60 58 56 57 58 59 60 63 65 66 68 70 71 72 73 75 77 79 81 83 85 88 89 91 93 95 97 98 99 100 101 102 103 104 106 108 110 111 113 115 118 120 122 123 125 126 127 128 128 129 128 127 126 125 124 123 122 121 119 118 117 115 114 113 112 111 110 108 107 106 105 104 103 102
61 62 63 65 67 68 68 67 65 62 58 56 55 55 57 59 61 62 63 64 66 69 71 74 76 78 79 80 81 84 87 89 90 92 94 95 96 97 98 99 100 102 103 105 106 108 110 112 114 116 118 120 122 124 125 127 128 129 130 129 129 128 127 125 123 121 120 119 118 117 116 114 113 112 111 110 109 108 107 106 105 104 103 102 100 100
63 63 62 62 63 64 63 60 57 55 53 54 55 57 60 62 64 66 67 68 70 72 76 78 80 83 86 86 87 89 91 93 94 95 96 96 97 98 100 102 104 106 108 110 112 114 116 118 119 121 123 125 127 128 129 130 130 130 128 127 125 123 122 120 119 118 117 115 114 113 113 112 111 110 109 108 107 106 105 104 102 101 100 99 98 97
62 61 59 56 55 55 55 53 51 52 54 57 59 60 63 66 68 70 71 73 75 77 80 82 83 86 90 91 91 93 93 94 95 96 98 99 101 103 105 107 109 111 113 115 118 120 122 123 125 127 129 130 130 130 129 128 127 125 123 122 120 119 118 117 116 116 114 113 113 112 111 111 110 108 107 106 105 103 102 101 99 98 97 97 96 95
58 57 55 51 48 48 49 50 52 53 56 59 62 64 66 69 71 73 75 77 79 81 85 87 86 86 90 92 93 94 95 96 98 100 102 104 106 108 110 113 115 117 119 121 123 125 126 128 130 131 131 130 128 126 125 123 121 120 120 119 118 117 115 115 115 114 113 112 111 111 109 108 107 105 104 102 101 100 99 98 97 95 94 94 93 93
51 50 49 48 48 49 50 53 55 57 58 61 65 68 70 72 75 77 79 81 83 84 87 89 89 88 89 91 93 95 97 99 102 104 106 108 110 113 115 117 119 121 123 125 127 128 129 130 130 129 127 125 123 122 121 120 119 118 117 116 116 115 114 113 112 112 110 109 107 106 105 103 102 101 100 99 99 97 96 95 94 93 92 91 90 89
44 46 48 50 53 55 55 57 60 62 63 65 69 72 74 77 79 81 83 84 85 86 86 89 91 91 91 93 96 98 101 103 105 108 110 112 114 116 118 120 122 125 127 128 129 129 129 127 126 124 123 121 121 120 119 119 118 116 115 113 112 111 111 110 109 107 106 104 103 102 101 100 100 99 98 97 96 95 94 93 92 90 89 88 87 86
45 48 50 53 57 60 61 62 65 67 69 71 74 76 78 80 81 83 83 84 85 87 87 89 92 94 96 98 100 103 105 107 109 112 114 115 117 120 122 124 126 128 129 129 127 126 125 123 122 122 120 119 118 117 116 115 114 113 112 111 110 108 108 107 106 105 104 102 101 100 100 99 99 98 97 95 94 93 92 91 90 89 87 86 85 84
49 52 54 56 60 64 66 68 70 72 74 76 78 79 80 81 81 82 83 84 86 88 90 92 95 98 100 103 105 108 110 112 114 117 119 121 122 124 126 127 127 127 126 125 123 122 121 121 120 119 118 116 115 113 112 112 111 110 109 108 107 107 107 107 106 105 104 103 101 99 98 97 97 96 95 94 92 91 91 90 89 88 86 84 83 82
54 56 58 59 63 67 70 72 75 76 77 78 79 79 80 80 81 82 83 85 88 91 94 97 99 102 105 108 110 113 115 117 119 122 123 125 126 126 126 125 124 123 122 120 120 119 118 117 117 115 114 112 111 111 110 109 108 108 107 107 106 106 106 106 106 106 105 103 101 99 96 94 93 93 93 92 91 90 89 88 87 86 84 82 81 79
57 60 62 64 66 70 72 74 76 76 77 78 78 78 79 81 83 85 86 89 92 95 98 101 103 105 108 111 114 116 119 121 123 125 125 125 125 124 122 121 120 119 118 118 117 116 115 114 113 111 110 109 109 109 109 108 107 107 107 106 106 106 105 105 105 104 103 102 100 97 94 92 90 90 90 89 88 87 86 85 84 83 81 79 78 77
62 64 67 67 68 70 72 73 74 75 76 78 79 80 82 84 86 89 91 94 97 100 103 105 107 109 111 113 116 119 121 124 125 126 125 123 121 119 118 118 117 116 115 114 113 112 111 110 109 109 108 108 108 108 108 107 107 106 106 105 105 104 104 103 102 101 100 98 96 94 91 89 87 86 86 85 84 83 82 81 80 79 77 76 75 74
66 67 68 68 68 69 71 72 73 76 78 81 83 85 86 89 91 93 96 98 101 104 106 108 110 113 115 117 119 121 123 124 124 123 121 118 116 115 114 114 113 112 111 110 110 109 109 108 108 108 108 108 108 108 107 107 106 105 104 104 103 102 101 100 99 97 96 95 93 91 88 86 84 82 81 81 80 79 78 77 76 75 74 72 71 71
66 67 68 69 68 69 71 73 75 78 82 85 88 89 91 93 95 97 99 101 105 107 109 112 114 117 118 120 121 120 120 119 119 118 116 115 113 112 110 110 109 108 107 107 107 107 108 108 108 107 106 106 106 107 107 106 105 104 103 102 100 99 98 96 95 93 92 90 89 87 85 82 80 79 78 76 75 74 74 73 72 71 70 69 68 67
67 67 69 71 71 72 75 77 79 81 84 88 90 92 94 96 99 100 101 104 108 111 113 115 117 118 118 118 117 115 114 114 114 114 112 111 109 108 107 107 106 106 106 106 106 106 106 106 105 104 103 103 104 105 104 104 103 102 101 100 98 96 94 92 90 89 88 86 85 83 81 79 77 76 75 73 72 70 70 69 68 68 67 66 65 64
69 70 72 74 76 77 79 81 83 84 86 89 92 94 96 99 102 103 104 106 110 113 115 116 117 116 115 113 111 110 109 108 109 109 108 107 106 106 106 106 106 106 106 106 105 104 103 103 102 102 101 101 102 102 101 101 100 99 98 96 94 93 91 90 88 86 84 83 81 79 78 76 75 73 72 71 69 68 67 66 65 65 64 63 63 62
72 73 75 77 79 80 81 82 84 85 88 92 94 96 100 103 106 108 109 110 113 115 115 116 114 112 110 109 107 106 105 103 102 104 104 104 103 103 104 104 105 104 104 103 103 102 102 102 102 101 101 100 100 99 98 98 97 97 95 94 92 91 90 88 86 83 81 79 78 76 75 74 72 71 70 69 67 66 64 63 62 62 61 60 60 60
75 76 77 79 80 81 82 84 86 88 91 94 97 99 103 107 110 112 112 112 113 113 112 111 110 108 107 105 104 102 101 98 96 97 99 100 100 100 101 101 102 102 102 102 102 102 102 102 102 101 101 100 100 99 98 98 97 95 94 92 91 90 88 86 84 81 79 77 76 74 73 72 71 69 68 67 66 64 62 61 60 60 59 57 57 57
76 77 78 79 81 83 85 87 90 93 96 98 100 103 106 110 112 113 112 110 108 108 107 106 104 103 101 100 98 98 97 95 93 93 95 96 97 98 98 98 99 100 101 101 102 102 102 102 102 101 101 101 100 99 98 97 96 94 92 91 89 88 86 84 82 79 77 76 74 73 72 70 69 68 66 64 64 62 60 59 58 58 57 55 54 55
76 77 78 80 83 86 89 92 95 98 101 103 104 106 107 109 110 109 107 105 103 102 102 100 98 97 95 94 93 94 94 94 93 93 93 94 94 96 97 98 99 100 100 101 101 101 101 101 102 102 102 101 100 98 97 96 95 93 91 89 87 85 84 82 80 78 76 75 74 72 71 70 68 66 64 62 61 60 58 57 56 56 55 54 53 53
78 80 82 84 87 91 94 96 99 102 104 105 105 105 104 104 104 103 102 100 98 97 96 94 93 91 90 90 91 92 92 93 93 93 92 93 94 95 96 97 98 99 100 100 101 100 100 100 101 102 101 100 99 97 95 94 93 91 89 87 85 83 82 80 79 77 76 75 74 72 70 69 67 65 63 61 59 57 56 55 54 54 53 52 51 51
81 84 87 89 92 95 97 99 102 103 103 102 100 99 98 98 98 97 96 94 93 91 90 89 88 88 88 89 89 90 91 91 91 92 93 93 94 95 96 97 98 98 99 99 99 99 99 99 100 100 100 98 96 94 93 91 90 88 86 84 82 81 80 79 78 76 75 74 73 71 70 68 66 64 61 59 57 55 54 54 53 52 51 49 50 50
87 90 93 95 97 98 99 100 101 101 100 98 96 94 94 94 94 92 90 89 88 87 87 87 87 87 88 88 88 89 90 90 91 92 93 93 95 96 96 97 97 97 97 98 98 98 97 98 98 98 97 96 94 93 91 89 87 85 83 81 80 79 78 78 77 75 74 72 71 70 68 66 64 62 60 57 55 54 52 52 52 51 49 48 48 48
93 95 97 99 100 100 99 98 98 98 97 96 94 92 91 91 90 89 87 86 86 86 87 87 86 87 87 87 87 89 90 90 91 92 92 93 94 94 95 95 95 96 96 96 96 96 96 96 96 95 95 94 93 92 91 88 85 83 81 80 78 77 77 76 75 74 72 71 69 67 66 64 62 60 58 55 53 51 50 50 51 50 48 46 46 47
97 98 99 99 98 97 96 95 95 96 96 94 92 90 89 89 88 87 87 87 87 87 87 87 86 86 86 86 87 88 89 90 91 92 92 92 92 93 93 93 94 95 95 95 94 94 94 94 94 93 93 93 92 91 89 86 84 81 80 78 77 76 75 74 73 72 71 69 67 66 64 62 60 58 56 53 51 49 48 48 48 48 46 45 45 45
99 98 97 96 95 94 94 94 94 93 93 91 89 86 86 87 87 87 87 86 86 85 85 85 85 85 86 86 87 88 89 89 89 90 90 90 90 91 91 92 93 93 94 93 92 91 91 91 91 91 91 90 89 88 85 83 82 81 79 77 76 75 74 74 72 71 69 67 66 64 63 61 59 57 55 52 49 47 46 46 46 45 44 44 43 43
97 95 94 93 93 93 92 92 91 90 89 88 86 84 84 85 85 85 84 84 83 83 83 84 84 85 85 86 86 87 88 88 88 88 89 88 89 89 90 91 91 92 92 91 90 90 90 90 90 89 89 87 85 84 82 81 81 80 78 77 75 74 73 72 71 70 68 66 64 63 61 60 58 56 54 52 49 45 44 45 44 42 41 43 42 41
95 94 93 92 92 91 90 89 88 86 84 84 83 82 81 82 82 82 82 82 82 83 83 84 84 84 85 85 86 86 86 87 87 87 87 88 88 88 89 90 90 90 89 89 89 89 89 89 88 87 86 84 82 81 80 80 80 79 78 76 74 72 71 70 70 69 67 65 63 62 61 59 57 55 53 51 49 45 42 43 44 41 38 40 41 41
95 94 93 91 90 89 87 86 84 82 81 80 80 79 79 80 80 80 81 82 82 83 83 83 84 84 85 85 85 85 85 86 86 87 88 88 88 88 88 88 88 88 88 88 88 89 88 88 87 85 84 83 81 80 80 80 79 79 77 75 73 71 68 67 67 67 66 64 63 61 60 58 56 54 52 50 49 46 41 40 42 42 38 37 39 39
94 93 91 90 88 86 84 83 82 81 80 80 79 78 78 79 80 80 81 81 82 82 83 83 83 83 84 84 85 85 85 85 86 87 88 88 88 88 88 87 86 86 87 87 87 87 86 86 85 84 83 82 81 80 79 79 78 77 75 73 71 69 67 65 64 64 63 63 61 60 58 57 56 54 52 49 47 46 43 39 39 40 39 37 37 38
Wind_Direction
284 285 286 287 288 289 290 291 292 292 293 294 294 295 296 296 296 297 297 297 297 297 296 296 299 300 300 301 301 302 302 301 300 301 302 303 303 302 301 300 299 299 298 297 297 297 296 295 294 294 291 289 290 285 279 281 281 280 280 280 280 280 280 281 281 282 282 282 282 282 283 283 283 283 283 283 283 284 284 285 285 284 284 283 283 282
284 285 286 288 289 290 291 291 292 293 293 294 295 296 297 296 297 297 297 297 297 297 297 298 301 302 301 301 301 302 302 301 301 302 303 303 303 302 301 300 299 298 298 298 297 296 295 295 293 291 288 288 287 282 279 281 281 280 280 280 281 281 281 282 282 282 282 282 282 282 282 282 283 283 283 284 284 284 285 285 285 284 284 284 284 283
285 286 287 288 289 290 291 292 292 293 294 295 297 298 298 298 297 297 297 297 297 297 298 300 301 301 301 302 302 302 302 301 302 302 303 303 302 302 301 300 299 298 298 297 296 295 295 293 291 287 286 286 285 281 280 281 280 280 281 281 282 282 283 283 282 282 282 282 282 282 282 282 282 283 283 284 284 284 284 284 284 285 285 285 285 286
285 286 287 287 288 289 291 292 292 294 295 296 297 298 298 298 297 297 297 298 298 299 300 300 300 301 302 301 301 302 301 301 302 302 302 302 302 301 300 299 298 298 297 296 295 295 294 291 287 285 285 285 283 282 282 282 281 282 282 284 284 284 284 284 283 283 283 283 283 283 283 283 283 283 284 284 284 284 284 284 285 285 286 286 287 287
284 285 286 286 288 289 291 292 292 293 294 295 296 297 298 298 298 298 298 299 300 300 300 300 300 301 302 301 301 301 301 301 301 301 301 301 301 300 299 299 298 298 298 297 297 296 293 290 286 284 284 284 283 284 284 284 284 284 285 285 285 284 284 284 284 285 285 285 284 285 285 285 285 285 285 285 286 286 286 286 286 286 287 287 287 287
283 283 285 286 288 290 291 291 292 293 294 295 296 297 299 299 299 300 300 300 300 299 300 299 300 302 302 301 301 300 300 300 301 301 301 300 300 299 299 300 299 299 299 299 297 295 292 289 286 285 284 284 285 285 285 285 286 286 286 286 285 285 285 285 285 285 286 286 286 286 286 286 286 286 287 287 287 287 287 287 287 287 287 287 287 287
282 284 286 288 289 291 291 291 292 293 294 295 296 298 299 300 301 301 301 300 299 299 299 299 300 302 301 300 301 300 300 301 301 300 301 300 300 300 300 300 300 300 299 297 295 293 291 289 287 286 286 286 286 286 286 286 286 286 286 286 286 286 286 286 286 286 286 286 287 287 287 287 287 287 287 287 287 287 288 288 288 288 288 288 288 287
283 285 287 289 290 290 291 291 292 293 295 296 297 298 300 301 301 301 300 299 298 299 300 300 301 303 301 300 300 301 301 301 301 301 301 301 301 300 300 300 299 298 297 295 294 293 292 291 290 289 289 288 287 287 287 287 287 287 287 287 287 287 286 287 287 287 287 287 287 287 287 288 288 288 288 289 289 289 289 290 290 290 289 289 288 288
285 287 288 288 289 290 291 292 293 294 296 297 297 299 300 301 301 300 299 298 298 299 300 300 301 302 301 300 300 301 302 301 301 301 301 300 299 299 299 298 297 296 295 294 294 293 293 292 291 291 290 289 289 289 288 288 288 288 288 288 288 288 288 288 288 289 289 289 289 289 289 288 289 289 289 290 290 290 290 290 290 290 290 289 288 288
286 287 288 289 290 291 291 292 293 294 295 297 298 299 300 300 299 298 298 298 299 300 300 301 301 301 302 302 302 302 301 300 300 300 299 298 297 297 297 295 294 294 293 294 294 293 293 292 292 292 291 291 290 290 290 289 290 290 290 289 289 290 290 290 290 290 290 290 290 290 290 290 290 290 290 290 290 290 290 290 290 290 289 289 289 289
286 287 288 289 290 290 291 292 293 295 296 297 298 299 299 299 298 298 298 298 299 300 301 301 301 302 302 302 302 301 300 300 299 298 297 297 296 295 294 293 292 292 293 293 293 293 292 291 292 292 291 291 290 290 290 290 290 290 290 290 290 290 290 290 290 290 290 290 290 290 291 291 291 292 292 291 291 291 291 291 291 291 291 290 290 290
287 287 288 289 289 290 291 292 294 295 296 297 298 298 298 297 297 297 298 299 300 301 301 301 301 302 302 302 301 300 300 300 299 298 297 296 296 294 293 292 292 292 292 292 291 290 290 290 290 290 289 288 288 289 289 289 289 289 289 289 289 289 289 289 289 289 289 290 290 291 291 292 292 293 293 293 292 292 292 292 291 291 291 291 291 290
287 287 288 288 289 290 291 293 294 295 296 297 298 298 297 296 296 297 298 299 300 301 301 302 302 302 301 301 301 301 301 301 300 299 298 296 294 293 292 291 292 292 292 291 291 291 291 290 290 289 289 290 290 290 290 290 290 290 290 289 289 289 289 289 289 290 290 291 291 292 292 292 292 293 293 293 293 292 292 292 291 291 291 290 290 289
285 286 287 287 288 289 291 293 294 295 296 297 297 297 296 296 297 298 299 299 300 301 302 302 301 301 301 301 302 302 302 301 300 299 298 296 294 293 293 293 294 293 293 293 293 293 293 292 292 293 292 292 292 292 292 292 291 291 290 290 290 290 290 290 290 291 291 292 292 292 292 293 293 292 292 292 292 292 292 292 292 291 291 290 290 289
284 285 285 286 287 289 291 292 293 294 296 296 296 295 295 296 298 299 300 301 301 302 302 301 301 301 301 302 303 303 303 301 300 300 299 298 296 296 296 296 296 295 295 295 296 295 295 295 295 295 294 293 293 293 292 292 291 291 290 290 291 291 291 292 292 292 293 293 293 293 293 293 292 292 292 292 292 292 292 292 292 292 291 291 290 290
287 287 286 286 287 288 289 291 292 294 295 295 295 295 296 297 299 301 302 303 302 302 302 301 301 301 301 302 304 304 303 302 302 302 300 298 298 298 298 298 297 298 298 298 298 297 297 297 296 295 294 294 293 293 292 292 292 292 292 293 293 294 294 294 294 294 294 294 293 293 293 293 293 292 292 292 292 292 292 292 291 291 291 291 290 290
289 289 288 288 288 289 290 292 294 295 295 296 296 297 298 300 301 302 303 303 302 303 303 302 301 301 302 303 304 303 302 301 301 300 299 298 299 299 299 298 298 299 298 298 297 297 296 295 294 294 294 294 294 294 294 295 295 295 295 296 296 296 295 295 295 294 294 294 294 294 293 293 293 293 292 292 292 291 291 291 290 290 290 290 289 289
290 290 290 290 290 291 293 294 295 296 296 297 298 299 301 302 302 302 303 303 303 304 304 304 303 303 303 303 302 301 300 300 300 299 298 299 299 298 298 298 298 297 296 296 295 295 294 294 294 295 295 296 296 296 297 297 297 297 296 296 296 296 295 295 295 295 294 294 294 294 294 293 293 293 292 292 292 291 291 291 290 290 289 289 288 288
292 292 292 292 293 293 294 295 295 296 298 299 300 301 302 303 303 303 304 304 304 304 304 304 303 303 304 303 302 301 301 300 299 298 298 298 297 297 296 296 296 296 296 296 296 296 297 297 297 297 298 298 298 297 297 297 297 297 296 296 296 296 296 296 295 295 295 294 294 294 294 293 293 293 293 292 292 291 291 290 290 289 289 288 287 287
294 294 293 293 293 293 294 295 296 297 299 300 301 302 302 303 304 304 305 304 304 305 304 304 303 303 303 302 301 301 300 299 298 297 296 296 296 296 297 297 298 298 299 298 298 299 299 299 298 298 298 298 298 298 298 297 297 297 297 297 297 296 296 296 296 296 296 295 295 295 294 294 294 293 293 292 292 291 291 290 290 289 288 288 287 287
296 296 295 294 294 294 295 297 298 299 300 301 302 302 302 303 304 304 305 306 306 307 306 305 303 303 302 300 300 300 299 298 298 298 298 298 298 299 299 299 299 299 299 298 298 299 299 299 298 298 298 298 298 297 297 297 297 297 297 297 297 297 297 297 297 297 297 296 296 295 295 294 294 293 293 292 292 291 291 290 290 289 288 288 287 286
296 297 296 296 296 297 298 299 300 300 301 301 302 302 303 304 304 305 305 306 306 306 304 303 302 301 300 300 300 300 300 300 300 300 300 300 300 300 299 299 299 299 298 299 299 299 299 298 298 298 298 298 297 297 298 298 298 299 299 299 299 298 298 298 298 297 297 296 296 295 295 294 294 293 293 293 292 292 291 291 290 289 289 288 288 287
298 298 299 299 299 299 300 301 302 302 302 302 303 303 304 304 304 303 303 303 303 303 302 302 302 302 302 302 302 302 302 301 301 301 301 300 300 300 300 300 300 300 299 300 299 299 299 298 298 299 299 299 299 299 300 300 300 300 300 299 299 298 298 298 297 297 296 296 295 295 295 294 294 294 293 293 292 292 291 291 290 290 289 289 288 288
300 300 300 300 300 301 301 302 303 303 304 304 304 304 304 303 303 303 303 303 303 303 303 304 304 304 304 304 303 303 302 302 302 301 301 301 302 302 301 301 301 300 301 301 300 300 300 301 301 301 301 301 301 301 301 301 300 300 299 299 298 298 298 298 297 297 297 296 296 296 295 295 295 294 294 294 293 293 292 291 291 290 290 289 288 288
301 301 301 302 301 301 302 303 304 304 304 304 304 304 303 303 303 304 305 305 305 306 305 304 305 305 304 304 304 303 303 303 303 303 303 303 303 302 302 302 302 302 303 302 302 302 302 303 302 302 302 301 301 301 300 300 299 299 299 299 299 298 298 298 298 298 298 297 297 297 296 296 295 295 294 294 293 292 292 291 291 290 289 289 288 288
303 303 304 305 303 302 302 303 303 303 303 303 303 303 303 303 304 305 306 306 306 306 305 304 305 305 304 305 305 304 304 304 303 303 303 303 303 303 304 304 304 304 304 303 303 303 303 302 302 301 301 300 300 300 300 300 300 300 300 300 300 300 300 299 299 298 298 298 297 297 296 296 295 295 294 293 293 292 292 291 291 290 289 289 288 288
306 306 307 307 306 304 304 304 303 303 302 302 303 304 304 305 305 306 306 306 306 306 306 305 305 305 305 304 304 303 303 303 303 303 303 303 304 304 304 304 304 303 303 302 302 302 301 301 301 300 301 301 301 301 301 301 301 301 301 300 300 300 300 299 298 298 297 297 296 296 296 296 295 295 295 294 294 293 293 292 291 291 290 289 289 288
309 309 309 309 307 306 306 306 305 305 305 305 305 306 306 306 306 306 307 307 307 307 306 306 305 305 304 303 303 302 302 302 303 303 303 304 304 304 303 303 302 302 302 301 301 302 301 301 302 302 302 302 303 302 302 302 302 301 301 300 300 300 299 299 298 298 298 298 298 298 298 297 297 297 296 295 295 294 294 293 292 291 291 290 290 289
311 310 310 309 308 308 308 308 307 307 308 307 307 307 307 307 307 307 308 308 307 306 305 304 303 303 303 302 302 302 303 303 303 303 304 304 303 303 303 303 302 302 302 302 302 302 302 303 303 303 303 303 303 302 302 302 302 301 301 301 301 301 300 300 300 300 300 299 299 299 299 299 298 298 297 296 296 295 294 293 293 292 291 291 290 290
311 310 310 310 309 309 309 309 308 308 308 308 308 308 308 308 308 307 307 306 305 304 303 303 302 303 303 304 304 304 304 304 304 304 304 304 304 304 303 303 302 302 302 303 303 303 303 303 303 303 303 303 303 303 302 302 302 302 302 302 303 302 302 302 302 301 301 301 301 300 299 299 298 298 297 297 296 295 294 294 293 292 292 291 290 290
310 310 309 309 309 309 309 309 308 308 308 308 308 307 307 307 306 305 304 304 303 303 303 303 304 304 305 304 304 305 305 305 304 304 304 303 303 303 303 303 303 303 303 303 303 303 303 302 303 303 303 303 303 303 303 303 304 304 304 304 304 303 303 303 302 302 302 302 301 301 300 300 299 298 297 296 296 295 294 293 292 292 292 291 291 290
310 309 309 309 309 309 309 309 308 308 308 307 306 306 305 305 304 304 304 304 304 304 304 304 304 305 304 304 304 304 304 303 303 303 303 303 303 303 303 303 303 303 303 303 303 303 303 303 303 303 304 304 304 305 305 305 305 305 305 304 304 304 303 302 302 302 302 301 301 301 301 300 299 297 296 295 295 294 293 292 292 292 291 291 291 290
310 310 310 310 310 309 308 308 308 307 306 305 305 305 305 305 305 306 306 306 305 305 304 305 304 304 304 303 303 303 303 303 303 303 304 304 304 304 303 303 303 303 303 303 303 303 303 303 304 305 305 306 306 306 306 306 305 305 305 305 304 304 303 303 302 302 302 301 301 301 300 299 298 297 296 295 295 294 293 293 292 292 292 291 290 289
311 310 310 310 310 309 308 308 307 307 307 307 307 307 307 307 307 306 306 306 305 304 304 304 304 304 304 304 304 304 304 304 304 304 304 304 304 303 303 303 303 303 303 303 304 304 305 306 306 307 308 307 307 307 306 306 306 306 306 305 305 304 304 304 303 303 302 301 301 300 300 299 298 297 296 296 295 295 294 293 293 292 292 291 290 289
312 311 310 310 310 309 308 308 309 309 309 309 308 308 308 307 306 306 305 304 304 303 304 304 304 304 305 304 304 304 304 304 304 304 304 304 304 303 303 303 303 304 304 305 306 306 307 307 308 308 307 307 307 306 306 306 306 306 306 306 305 305 305 304 303 303 302 302 301 301 301 300 299 298 297 296 296 295 294 294 293 292 291 290 289 288
313 312 311 311 311 311 311 311 311 310 309 308 308 307 306 305 305 304 304 304 303 304 304 304 304 304 304 304 304 304 304 304 304 304 304 304 304 305 305 305 305 306 306 307 307 307 307 307 307 307 307 306 306 305 305 306 306 306 306 306 306 305 305 304 304 303 303 302 302 301 301 301 300 299 298 297 296 296 295 294 293 292 291 289 289 288
313 313 313 313 313 313 312 311 311 310 308 307 306 306 305 304 304 304 304 304 303 304 304 303 304 304 304 304 304 304 304 304 304 305 306 306 306 307 307 307 307 307 307 307 307 307 306 306 306 307 306 306 306 306 306 306 307 307 307 307 307 307 306 305 305 304 304 303 303 302 302 301 301 300 299 298 297 296 295 294 293 291 290 289 288 288
315 314 314 313 313 312 311 310 309 308 306 305 305 304 304 303 303 304 304 304 304 304 304 305 305 305 305 305 305 305 305 306 306 306 307 307 307 307 307 307 307 306 306 306 306 307 307 307 307 307 307 307 307 307 308 308 308 308 308 308 308 308 307 306 306 305 305 304 304 303 303 302 301 300 300 299 298 297 296 295 293 291 289 289 288 288
314 314 313 312 311 310 309 308 307 305 304 304 304 304 304 304 304 305 305 305 306 306 306 306 306 307 306 306 307 306 306 307 306 306 306 306 306 306 306 305 306 306 306 307 308 308 308 308 308 308 308 309 309 310 310 310 310 310 310 310 310 309 308 308 307 307 306 305 305 304 303 302 302 301 300 299 298 297 296 295 293 291 290 289 288 287
313 312 312 311 310 308 307 307 306 305 304 304 305 305 305 305 305 306 306 307 307 307 307 307 307 307 307 307 307 307 306 306 306 306 305 305 305 305 306 306 307 307 308 308 309 309 309 310 310 310 310 310 311 312 312 312 311 311 311 311 311 310 309 309 308 308 307 306 306 305 304 303 302 301 300 299 298 297 296 295 293 292 290 289 288 287
312 311 310 310 309 308 307 307 307 306 306 306 306 307 307 307 307 307 308 308 308 307 307 307 307 307 307 307 307 307 307 307 307 306 306 306 307 307 308 308 309 309 309 309 310 310 311 311 311 311 311 312 312 313 312 312 312 312 312 312 311 311 310 310 309 309 308 308 307 306 305 304 303 302 301 300 299 298 296 295 293 292 291 290 289 287
312 311 311 310 309 309 308 308 308 307 307 308 308 308 308 308 307 308 308 308 308 308 307 307 307 307 308 308 308 308 308 308 308 308 309 309 309 309 309 309 310 310 310 311 311 312 312 312 312 312 312 312 313 313 312 312 312 312 312 313 312 312 312 311 311 310 310 309 309 308 307 306 305 304 303 302 300 299 297 295 293 292 291 290 289 287
313 313 312 311 311 310 310 310 309 309 308 309 309 309 309 309 308 308 309 308 308 308 308 309 309 309 309 309 309 309 309 310 310 311 311 311 311 310 310 311 311 311 312 312 312 312 313 312 312 312 312 312 313 312 312 312 313 313 314 314 314 313 313 312 312 311 311 310 310 309 308 307 306 305 304 303 302 300 298 296 294 292 291 290 289 288
315 315 314 313 313 312 312 311 311 310 310 310 311 311 310 309 309 309 309 309 310 310 311 311 312 311 311 312 311 311 312 312 312 312 312 312 311 311 312 312 312 312 312 312 312 313 312 312 312 312 312 313 313 313 313 314 314 315 315 315 314 314 313 313 312 312 311 311 310 309 308 307 306 306 305 304 303 301 299 296 294 293 292 291 289 288
318 317 317 316 315 314 314 314 313 313 312 312 313 313 312 312 312 312 313 313 314 314 313 314 314 314 314 314 314 313 313 313 313 312 312 312 312 312 312 312 312 312 312 312 313 313 313 312 312 313 313 314 314 314 315 316 316 316 316 316 315 315 314 313 312 312 311 311 310 309 308 307 307 306 305 304 303 301 299 297 294 293 292 291 289 287
320 319 318 318 317 317 316 316 316 315 315 315 316 316 316 315 315 316 316 316 316 316 316 316 316 315 315 315 314 314 313 313 312 312 312 312 312 312 312 312 313 313 313 313 313 313 313 313 314 314 315 315 316 316 317 317 317 317 316 316 316 315 315 314 313 312 312 311 310 309 308 307 307 306 305 304 302 301 298 296 294 293 291 289 287 286
321 320 320 319 319 319 319 318 318 317 317 317 318 319 318 318 318 318 318 318 317 317 316 316 316 316 315 315 314 313 313 312 312 312 312 313 313 313 313 313 313 313 313 314 314 314 314 314 315 315 316 316 316 317 317 317 317 317 317 317 317 316 316 315 314 313 312 311 311 310 309 308 307 307 306 305 303 302 299 295 293 292 291 288 286 284
322 322 322 321 321 320 320 320 319 319 319 319 320 320 320 319 318 318 318 317 317 317 316 316 316 316 315 314 314 313 313 313 313 313 313 313 313 313 314 314 314 314 314 315 315 315 315 315 316 316 316 316 317 318 318 318 317 317 317 318 318 318 317 315 314 313 313 312 311 310 309 308 308 307 306 305 304 302 300 296 293 292 290 288 286 283
324 323 323 323 322 322 321 321 321 321 321 320 320 320 320 319 318 318 318 318 318 317 317 317 316 315 315 314 314 314 314 314 314 314 314 314 314 315 315 315 315 315 315 315 315 316 316 317 317 317 317 317 318 319 319 319 318 318 318 319 318 318 317 316 315 314 313 313 312 311 310 309 308 307 306 305 304 303 301 297 295 293 290 287 285 283
325 325 325 324 324 323 323 322 321 321 321 320 320 320 320 319 319 319 318 318 318 317 317 317 316 316 315 315 315 315 315 315 315 315 315 315 316 316 316 316 316 316 316 316 317 317 318 318 318 318 318 319 320 320 320 320 319 319 319 319 318 318 317 316 315 314 314 313 312 312 310 309 309 308 307 306 305 303 301 298 295 294 291 286 284 282
326 326 326 325 325 325 324 323 322 322 322 322 321 322 321 321 320 320 319 319 318 318 317 317 316 316 316 316 316 316 316 316 316 316 316 317 317 317 317 317 317 317 317 317 318 318 319 319 319 320 320 321 321 321 321 320 319 319 319 319 318 318 317 317 316 315 314 313 312 312 311 309 309 308 307 306 305 304 302 300 296 293 291 288 284 282
Height
10676 10673 10668 10667 10665 10663 10661 10658 10655 10652 10649 10647 10645 10643 10639 10636 10634 10629 10626 10623 10619 10619 10615 10609 10609 10604 10594 10586 10578 10574 10572 10568 10566 10565 10563 10559 10554 10549 10544 10540 10535 10530 10525 10521 10518 10514 10509 10505 10501 10498 10495 10492 10491 10491 10488 10486 10484 10482 10480 10479 10478 10476 10475 10474 10473 10471 10469 10467 10464 10462 10459 10457 10454 10452 10450 10448 10446 10444 10442 10439 10436 10434 10431 10429 10426 10424
10671 10667 10662 10661 10659 10656 10654 10651 10648 10646 10643 10640 10638 10636 10632 10628 10627 10624 10619 10616 10612 10612 10609 10603 10602 10596 10585 10580 10572 10566 10563 10558 10555 10553 10551 10549 10543 10538 10534 10529 10525 10521 10517 10513 10509 10505 10500 10496 10493 10490 10487 10485 10483 10483 10481 10479 10476 10474 10473 10471 10470 10469 10468 10466 10464 10463 10460 10458 10455 10453 10450 10447 10445 10442 10440 10439 10436 10435 10432 10428 10425 10422 10419 10416 10413 10410
10665 10661 10657 10656 10653 10650 10647 10644 10641 10638 10636 10633 10630 10628 10625 10620 10620 10617 10613 10610 10605 10604 10602 10597 10596 10589 10578 10571 10565 10559 10555 10549 10546 10543 10540 10537 10532 10528 10524 10519 10515 10511 10508 10505 10500 10496 10492 10488 10485 10482 10479 10478 10476 10475 10474 10471 10468 10467 10465 10464 10463 10462 10459 10457 10455 10453 10450 10448 10445 10443 10440 10438 10436 10433 10430 10428 10426 10424 10422 10418 10414 10410 10406 10403 10399 10395
10659 10654 10652 10650 10647 10644 10641 10637 10633 10632 10629 10626 10623 10620 10618 10614 10612 10610 10606 10603 10599 10595 10594 10591 10589 10584 10572 10563 10558 10552 10547 10542 10538 10535 10532 10527 10523 10519 10514 10509 10505 10502 10500 10496 10491 10487 10483 10479 10477 10474 10472 10471 10469 10467 10466 10463 10461 10459 10458 10457 10455 10452 10449 10446 10444 10442 10440 10437 10434 10432 10430 10427 10425 10422 10419 10417 10414 10411 10409 10406 10403 10399 10394 10390 10385 10381
10653 10649 10646 10644 10641 10638 10635 10631 10627 10626 10624 10620 10616 10613 10612 10608 10604 10602 10599 10596 10592 10587 10584 10581 10580 10579 10566 10555 10552 10545 10537 10535 10532 10528 10524 10519 10515 10510 10504 10499 10495 10493 10490 10486 10481 10477 10474 10471 10469 10467 10465 10463 10461 10459 10458 10455 10453 10451 10450 10448 10445 10442 10438 10436 10433 10430 10428 10425 10422 10420 10417 10415 10413 10410 10407 10404 10401 10397 10394 10392 10389 10386 10382 10378 10373 10368
10646 10643 10640 10638 10635 10631 10629 10625 10620 10619 10618 10614 10610 10606 10605 10601 10597 10594 10591 10588 10586 10581 10575 10568 10569 10574 10561 10545 10544 10540 10529 10526 10523 10520 10516 10511 10507 10501 10495 10491 10486 10483 10480 10476 10471 10468 10466 10464 10462 10461 10459 10456 10454 10452 10450 10448 10445 10443 10440 10437 10434 10430 10427 10425 10422 10419 10416 10413 10410 10407 10404 10401 10399 10396 10392 10389 10387 10383 10379 10377 10373 10370 10367 10363 10359 10354
10640 10637 10634 10631 10628 10624 10621 10618 10614 10612 10611 10608 10604 10600 10597 10594 10590 10586 10583 10580 10578 10574 10568 10558 10556 10564 10556 10539 10533 10530 10522 10518 10514 10510 10507 10502 10497 10492 10487 10483 10478 10474 10471 10466 10462 10461 10459 10458 10455 10453 10451 10449 10447 10444 10442 10439 10436 10433 10430 10426 10423 10419 10415 10412 10410 10407 10404 10401 10398 10394 10391 10388 10385 10383 10379 10375 10372 10369 10365 10362 10358 10353 10350 10347 10343 10339
10634 10632 10628 10625 10621 10617 10614 10610 10607 10604 10603 10601 10597 10593 10590 10586 10582 10579 10576 10572 10569 10567 10559 10549 10545 10549 10547 10536 10526 10519 10512 10507 10504 10500 10496 10491 10487 10482 10479 10475 10471 10466 10461 10457 10455 10454 10452 10450 10447 10445 10443 10440 10438 10436 10433 10430 10426 10423 10420 10416 10412 10408 10404 10401 10398 10395 10391 10388 10385 10381 10378 10375 10370 10366 10364 10360 10356 10352 10348 10345 10341 10336 10333 10330 10326 10323
10628 10626 10621 10618 10614 10611 10607 10604 10600 10597 10595 10593 10590 10586 10582 10578 10574 10571 10568 10563 10560 10558 10552 10542 10536 10535 10533 10527 10520 10514 10506 10498 10494 10491 10487 10483 10478 10475 10471 10468 10463 10459 10454 10450 10448 10447 10445 10441 10438 10436 10434 10432 10429 10426 10422 10419 10415 10412 10408 10404 10400 10395 10392 10388 10385 10381 10376 10372 10368 10365 10362 10361 10356 10351 10348 10344 10340 10335 10332 10329 10324 10319 10316 10312 10309 10306
10623 10619 10615 10611 10608 10604 10600 10597 10594 10591 10589 10586 10582 10578 10574 10570 10567 10563 10559 10555 10551 10548 10543 10535 10528 10524 10520 10515 10510 10505 10499 10493 10488 10483 10479 10475 10472 10468 10464 10460 10456 10452 10448 10444 10442 10440 10437 10433 10430 10427 10425 10422 10418 10415 10411 10407 10404 10400 10397 10392 10387 10382 10378 10374 10370 10366 10362 10356 10352 10348 10344 10342 10340 10336 10332 10328 10324 10319 10315 10313 10308 10302 10298 10294 10290 10287
10616 10612 10609 10605 10601 10597 10593 10589 10587 10585 10582 10578 10575 10571 10566 10561 10558 10555 10551 10546 10542 10538 10533 10526 10519 10514 10509 10504 10500 10494 10489 10487 10483 10476 10471 10467 10463 10460 10457 10453 10450 10446 10443 10439 10435 10432 10429 10425 10422 10419 10416 10412 10408 10404 10400 10397 10394 10390 10385 10380 10376 10371 10366 10361 10356 10353 10349 10344 10338 10334 10329 10325 10321 10317 10314 10311 10306 10301 10297 10295 10290 10284 10279 10274 10270 10266
10610 10605 10602 10598 10594 10590 10586 10582 10579 10577 10574 10571 10567 10563 10559 10555 10550 10548 10543 10537 10533 10528 10522 10516 10510 10504 10499 10495 10492 10486 10479 10477 10474 10468 10463 10459 10455 10451 10448 10445 10443 10440 10437 10433 10429 10425 10422 10419 10416 10412 10408 10404 10399 10395 10391 10388 10384 10380 10374 10369 10365 10360 10354 10349 10344 10339 10335 10330 10325 10319 10314 10308 10303 10298 10294 10290 10287 10283 10279 10277 10272 10266 10260 10255 10249 10244
10602 10598 10594 10591 10587 10582 10579 10575 10572 10569 10566 10562 10557 10553 10550 10547 10543 10541 10537 10530 10525 10520 10514 10507 10499 10494 10489 10486 10483 10478 10472 10467 10463 10459 10455 10451 10447 10444 10441 10438 10435 10432 10429 10424 10420 10417 10414 10410 10406 10402 10398 10393 10388 10383 10379 10376 10372 10367 10361 10356 10352 10347 10341 10335 10330 10324 10320 10315 10309 10303 10297 10292 10286 10281 10276 10271 10267 10263 10259 10257 10254 10249 10243 10236 10230 10223
10597 10591 10587 10583 10579 10575 10572 10569 10565 10562 10559 10555 10549 10544 10540 10536 10534 10533 10529 10523 10518 10512 10505 10498 10491 10485 10480 10477 10473 10469 10464 10459 10453 10450 10446 10442 10438 10434 10432 10429 10426 10423 10419 10415 10411 10407 10402 10398 10394 10389 10384 10379 10374 10370 10366 10362 10358 10352 10347 10342 10337 10332 10326 10320 10315 10309 10304 10299 10293 10287 10281 10275 10269 10265 10260 10254 10248 10243 10238 10234 10232 10228 10222 10216 10209 10202
10592 10587 10582 10577 10572 10569 10565 10562 10559 10555 10552 10548 10543 10537 10533 10527 10523 10522 10520 10515 10510 10505 10498 10489 10482 10478 10472 10469 10466 10461 10456 10450 10445 10441 10437 10432 10427 10424 10422 10419 10415 10411 10407 10404 10399 10394 10389 10385 10381 10376 10370 10366 10361 10357 10353 10348 10342 10337 10331 10327 10322 10317 10311 10305 10299 10293 10287 10282 10276 10270 10263 10257 10252 10247 10242 10237 10231 10224 10219 10213 10209 10204 10199 10192 10186 10179
10586 10581 10575 10571 10566 10562 10559 10555 10552 10548 10544 10541 10536 10530 10526 10521 10515 10512 10508 10503 10498 10496 10490 10481 10474 10470 10465 10462 10459 10455 10449 10442 10437 10433 10428 10422 10417 10414 10411 10407 10402 10398 10395 10391 10386 10381 10377 10372 10366 10361 10356 10352 10347 10342 10337 10332 10326 10320 10315 10310 10305 10299 10293 10287 10282 10276 10270 10264 10258 10252 10245 10239 10233 10227 10222 10218 10212 10206 10199 10194 10188 10182 10177 10170 10164 10158
10579 10574 10567 10563 10559 10554 10551 10547 10543 10540 10536 10531 10527 10521 10517 10513 10507 10503 10499 10493 10488 10485 10482 10473 10466 10462 10459 10457 10454 10449 10444 10437 10431 10426 10419 10414 10409 10405 10401 10396 10391 10387 10383 10379 10375 10370 10365 10359 10352 10347 10342 10337 10332 10326 10321 10314 10308 10301 10296 10291 10287 10281 10275 10268 10263 10257 10251 10245 10239 10233 10225 10218 10212 10206 10200 10195 10190 10184 10178 10173 10167 10162 10157 10151 10143 10138
10572 10570 10560 10554 10552 10547 10543 10540 10535 10530 10526 10521 10516 10511 10506 10503 10498 10493 10490 10485 10480 10477 10474 10467 10460 10455 10452 10450 10447 10443 10438 10432 10426 10419 10413 10407 10402 10396 10391 10387 10382 10377 10373 10369 10364 10358 10352 10346 10339 10334 10328 10321 10315 10309 10303 10297 10291 10284 10278 10273 10268 10264 10258 10251 10245 10239 10232 10225 10218 10213 10205 10197 10190 10183 10177 10171 10166 10161 10156 10151 10146 10141 10137 10131 10125 10119
10563 10564 10557 10547 10544 10540 10535 10532 10528 10522 10517 10513 10508 10502 10497 10493 10489 10484 10480 10477 10474 10470 10467 10462 10454 10449 10445 10440 10437 10434 10430 10424 10418 10412 10406 10401 10395 10389 10383 10378 10372 10367 10362 10356 10350 10344 10338 10331 10325 10318 10312 10305 10299 10292 10286 10280 10274 10268 10261 10255 10249 10243 10237 10230 10224 10218 10213 10205 10197 10191 10184 10176 10169 10162 10156 10150 10144 10139 10134 10130 10125 10121 10116 10111 10106 10100
10554 10556 10553 10543 10537 10533 10528 10525 10522 10516 10510 10505 10500 10495 10489 10484 10480 10476 10471 10466 10465 10462 10459 10455 10448 10444 10440 10432 10427 10425 10420 10415 10410 10403 10398 10392 10386 10380 10374 10368 10362 10355 10348 10341 10334 10329 10323 10317 10310 10303 10298 10291 10284 10277 10269 10263 10257 10250 10243 10237 10230 10223 10216 10209 10202 10196 10190 10183 10175 10168 10161 10155 10148 10141 10135 10130 10124 10119 10114 10109 10104 10100 10095 10090 10086 10081
10547 10546 10545 10538 10531 10526 10521 10518 10515 10510 10504 10498 10493 10487 10482 10478 10474 10470 10465 10458 10454 10451 10448 10443 10439 10436 10433 10425 10419 10415 10409 10404 10399 10392 10387 10381 10374 10368 10362 10356 10350 10343 10335 10328 10322 10317 10311 10303 10297 10290 10284 10277 10269 10261 10253 10246 10239 10232 10225 10218 10210 10202 10195 10189 10182 10174 10167 10160 10152 10145 10139 10133 10127 10120 10115 10109 10103 10097 10093 10089 10084 10078 10074 10070 10066 10061
10541 10538 10536 10531 10524 10518 10513 10509 10506 10502 10497 10492 10486 10481 10476 10472 10467 10464 10460 10454 10448 10443 10438 10433 10428 10425 10422 10417 10411 10404 10398 10392 10387 10381 10375 10369 10363 10357 10351 10345 10339 10332 10324 10318 10312 10305 10298 10291 10284 10277 10270 10262 10253 10245 10237 10230 10221 10213 10205 10198 10189 10181 10173 10167 10161 10155 10148 10140 10132 10125 10119 10114 10107 10101 10095 10089 10083 10077 10072 10068 10063 10057 10053 10050 10046 10040
10534 10531 10528 10523 10516 10510 10506 10502 10497 10493 10489 10485 10480 10475 10470 10466 10461 10457 10454 10451 10444 10437 10430 10424 10418 10411 10407 10406 10401 10393 10386 10380 10375 10369 10363 10357 10351 10345 10339 10332 10325 10317 10310 10305 10298 10290 10282 10275 10268 10261 10254 10245 10235 10227 10219 10211 10202 10193 10185 10177 10170 10162 10154 10147 10142 10135 10129 10122 10114 10107 10100 10094 10088 10082 10076 10070 10064 10058 10053 10048 10043 10038 10033 10030 10026 10021
10526 10524 10521 10517 10510 10502 10497 10495 10491 10486 10482 10478 10474 10469 10463 10458 10453 10448 10445 10442 10437 10430 10421 10415 10410 10400 10391 10391 10388 10381 10374 10368 10363 10357 10350 10344 10338 10331 10324 10317 10309 10302 10295 10288 10280 10271 10263 10256 10249 10241 10233 10224 10216 10208 10200 10192 10183 10175 10166 10158 10152 10145 10137 10129 10122 10115 10108 10101 10095 10087 10080 10074 10068 10063 10057 10050 10045 10039 10034 10029 10025 10020 10015 10011 10007 10003
10519 10515 10513 10511 10506 10498 10491 10488 10485 10481 10475 10470 10466 10462 10456 10450 10445 10440 10436 10431 10426 10420 10412 10405 10404 10395 10381 10376 10373 10365 10360 10355 10348 10341 10335 10329 10323 10316 10308 10300 10292 10285 10278 10270 10261 10252 10244 10236 10229 10220 10212 10204 10197 10190 10183 10175 10166 10157 10149 10140 10133 10127 10119 10110 10102 10095 10088 10081 10075 10068 10061 10055 10049 10044 10038 10032 10026 10021 10016 10011 10007 10003 9998 9993 9989 9985
10512 10506 10504 10502 10499 10495 10490 10484 10481 10477 10472 10465 10459 10455 10449 10443 10438 10432 10427 10422 10417 10411 10401 10392 10393 10389 10376 10365 10359 10352 10345 10340 10333 10325 10318 10311 10305 10298 10291 10283 10275 10268 10260 10251 10243 10235 10227 10219 10211 10202 10194 10187 10180 10173 10165 10157 10148 10139 10131 10121 10112 10106 10100 10093 10084 10076 10069 10063 10057 10051 10044 10037 10032 10026 10020 10014 10009 10004 9998 9993 9989 9985 9980 9976 9972 9968
10507 10500 10497 10494 10490 10487 10484 10479 10474 10471 10467 10461 10453 10446 10441 10435 10430 10423 10418 10413 10407 10400 10391 10380 10376 10377 10369 10359 10350 10342 10334 10328 10321 10313 10306 10299 10292 10284 10276 10268 10260 10252 10243 10235 10227 10220 10212 10204 10194 10185 10177 10169 10162 10154 10145 10136 10128 10121 10113 10105 10096 10088 10082 10075 10067 10059 10053 10047 10041 10034 10027 10021 10015 10009 10003 9996 9991 9986 9981 9976 9970 9967 9963 9959 9955 9951
10502 10496 10492 10487 10481 10477 10476 10471 10465 10461 10457 10452 10445 10438 10433 10427 10420 10413 10408 10402 10395 10388 10382 10372 10362 10360 10357 10349 10340 10333 10326 10318 10311 10303 10296 10289 10282 10274 10265 10256 10248 10238 10229 10219 10211 10202 10194 10185 10176 10167 10159 10151 10144 10135 10126 10118 10110 10102 10095 10088 10081 10073 10064 10056 10049 10042 10035 10029 10023 10016 10010 10003 9997 9991 9985 9979 9973 9968 9963 9958 9953 9949 9946 9942 9939 9935
10498 10493 10488 10482 10474 10468 10466 10462 10456 10451 10447 10442 10436 10429 10424 10418 10411 10404 10398 10391 10383 10375 10370 10364 10354 10347 10343 10337 10327 10320 10314 10307 10299 10291 10283 10276 10269 10259 10249 10241 10232 10221 10211 10202 10193 10184 10175 10166 10157 10149 10142 10135 10127 10120 10111 10102 10093 10085 10077 10069 10062 10054 10045 10037 10029 10022 10016 10010 10005 9999 9993 9986 9980 9974 9968 9962 9957 9952 9946 9941 9937 9933 9930 9927 9924 9920
10492 10487 10483 10478 10470 10461 10457 10453 10447 10442 10437 10431 10426 10419 10413 10408 10402 10395 10389 10382 10374 10365 10359 10354 10346 10337 10330 10322 10313 10305 10298 10291 10282 10273 10264 10257 10250 10241 10231 10222 10213 10203 10194 10185 10177 10168 10159 10150 10141 10133 10126 10119 10111 10103 10095 10087 10078 10069 10060 10052 10044 10036 10027 10018 10011 10004 9998 9992 9987 9981 9976 9970 9964 9957 9951 9946 9941 9936 9931 9926 9921 9918 9915 9912 9909 9906
10486 10481 10477 10473 10466 10457 10451 10445 10438 10434 10429 10422 10416 10411 10404 10399 10393 10387 10382 10374 10365 10356 10347 10340 10333 10326 10317 10307 10297 10289 10281 10272 10263 10254 10246 10239 10232 10224 10215 10205 10195 10186 10177 10169 10161 10152 10144 10135 10126 10118 10111 10103 10094 10086 10078 10070 10061 10052 10044 10036 10028 10019 10011 10002 9995 9988 9981 9975 9970 9964 9959 9954 9948 9942 9936 9930 9926 9921 9916 9912 9908 9904 9901 9897 9894 9891
10481 10475 10470 10466 10460 10451 10445 10439 10431 10425 10420 10413 10408 10403 10397 10390 10383 10377 10371 10364 10355 10346 10338 10330 10322 10315 10306 10295 10284 10274 10264 10256 10247 10238 10231 10224 10215 10205 10196 10188 10178 10169 10161 10153 10146 10137 10129 10120 10111 10104 10096 10088 10079 10069 10060 10052 10044 10036 10028 10020 10012 10004 9996 9987 9980 9974 9967 9960 9954 9949 9944 9938 9933 9927 9921 9916 9911 9906 9902 9898 9894 9890 9887 9884 9880 9877
10474 10468 10462 10458 10453 10445 10438 10432 10425 10418 10411 10403 10398 10393 10388 10380 10373 10365 10358 10351 10342 10332 10324 10317 10309 10301 10293 10284 10275 10264 10252 10241 10231 10221 10213 10208 10200 10190 10179 10170 10162 10154 10145 10137 10129 10121 10113 10105 10096 10088 10080 10071 10062 10052 10043 10035 10028 10020 10013 10005 9997 9988 9980 9972 9964 9958 9952 9945 9939 9935 9930 9925 9919 9913 9907 9902 9897 9892 9887 9883 9879 9876 9873 9870 9867 9863
10466 10460 10454 10450 10446 10439 10431 10425 10417 10409 10401 10392 10386 10381 10375 10368 10361 10354 10346 10337 10328 10319 10310 10302 10295 10286 10278 10268 10259 10249 10237 10226 10215 10205 10197 10192 10186 10178 10167 10156 10147 10140 10132 10124 10114 10105 10096 10088 10079 10070 10062 10054 10045 10037 10028 10020 10012 10005 9997 9990 9982 9973 9965 9957 9949 9942 9936 9929 9923 9919 9914 9910 9904 9898 9893 9888 9883 9878 9874 9869 9866 9863 9860 9858 9854 9851
10458 10452 10445 10440 10437 10431 10423 10417 10411 10402 10391 10381 10375 10370 10363 10356 10349 10343 10336 10325 10313 10305 10297 10288 10278 10270 10261 10251 10241 10232 10222 10211 10199 10190 10182 10176 10169 10161 10153 10143 10133 10125 10117 10109 10100 10089 10080 10071 10064 10057 10049 10041 10032 10023 10015 10007 9999 9991 9983 9975 9968 9960 9952 9944 9937 9930 9923 9915 9909 9903 9899 9895 9890 9884 9879 9875 9870 9866 9862 9857 9854 9851 9847 9845 9842 9839
10450 10444 10437 10431 10427 10422 10414 10407 10401 10395 10385 10374 10366 10359 10351 10343 10335 10330 10326 10314 10300 10290 10283 10274 10265 10256 10247 10238 10228 10218 10208 10196 10184 10173 10167 10160 10151 10142 10134 10125 10116 10107 10099 10092 10084 10077 10068 10060 10053 10047 10040 10031 10022 10012 10003 9995 9986 9979 9970 9962 9954 9947 9939 9931 9925 9918 9911 9903 9897 9890 9885 9881 9876 9871 9866 9862 9858 9854 9850 9847 9843 9839 9836 9833 9830 9827
10442 10437 10430 10422 10417 10412 10406 10398 10391 10384 10374 10364 10357 10349 10340 10330 10321 10316 10313 10305 10292 10280 10271 10262 10253 10245 10234 10224 10215 10206 10196 10185 10170 10157 10149 10142 10133 10124 10115 10106 10099 10091 10084 10077 10071 10064 10057 10049 10041 10034 10028 10020 10010 10001 9993 9984 9974 9966 9957 9949 9941 9933 9925 9918 9911 9905 9899 9892 9885 9879 9873 9868 9864 9860 9854 9849 9846 9843 9839 9836 9832 9828 9825 9822 9819 9816
10435 10429 10422 10415 10408 10402 10396 10389 10381 10373 10363 10352 10345 10338 10327 10316 10308 10301 10296 10289 10278 10267 10256 10244 10236 10229 10219 10209 10200 10190 10182 10174 10160 10145 10134 10127 10119 10111 10102 10093 10086 10079 10073 10066 10059 10052 10043 10036 10028 10020 10013 10005 9996 9987 9979 9970 9961 9952 9943 9935 9927 9919 9911 9903 9897 9891 9886 9879 9872 9867 9862 9856 9852 9848 9843 9838 9835 9831 9828 9824 9821 9817 9814 9812 9809 9805
10427 10421 10413 10406 10399 10392 10385 10377 10369 10362 10353 10343 10336 10327 10314 10302 10293 10285 10279 10271 10260 10248 10238 10227 10218 10210 10200 10192 10183 10173 10166 10162 10154 10141 10128 10119 10111 10103 10095 10086 10077 10069 10061 10053 10045 10037 10028 10020 10012 10003 9995 9987 9979 9970 9962 9953 9944 9936 9928 9921 9913 9904 9896 9889 9882 9877 9872 9866 9860 9855 9850 9845 9841 9836 9832 9828 9824 9820 9817 9814 9809 9806 9803 9801 9799 9795
10418 10412 10405 10397 10388 10380 10374 10365 10356 10347 10339 10331 10325 10317 10302 10288 10277 10267 10261 10255 10245 10232 10222 10213 10204 10195 10186 10177 10170 10160 10152 10148 10144 10135 10124 10113 10103 10094 10085 10076 10067 10057 10048 10039 10031 10022 10013 10004 9995 9986 9978 9971 9963 9955 9947 9939 9929 9921 9914 9907 9899 9891 9883 9876 9869 9864 9858 9853 9848 9843 9838 9834 9829 9825 9821 9818 9813 9809 9806 9803 9799 9795 9792 9791 9789 9786
10411 10404 10397 10388 10378 10369 10361 10353 10342 10332 10324 10316 10309 10301 10289 10274 10262 10252 10244 10239 10231 10220 10210 10202 10193 10184 10176 10167 10158 10149 10140 10132 10126 10120 10112 10102 10092 10081 10071 10061 10052 10043 10034 10026 10017 10008 9998 9989 9979 9969 9961 9954 9948 9941 9934 9925 9916 9908 9901 9893 9886 9878 9870 9862 9856 9850 9845 9839 9834 9830 9825 9821 9817 9813 9810 9806 9802 9798 9794 9792 9788 9784 9782 9780 9778 9776
10401 10393 10385 10378 10368 10357 10349 10340 10329 10318 10309 10302 10293 10284 10274 10261 10249 10241 10232 10224 10217 10208 10200 10191 10183 10174 10166 10157 10147 10137 10128 10119 10111 10103 10095 10086 10077 10068 10058 10048 10039 10029 10020 10010 10001 9993 9985 9976 9966 9956 9948 9941 9934 9928 9921 9913 9904 9896 9889 9881 9873 9865 9857 9849 9843 9837 9832 9826 9821 9816 9811 9807 9804 9801 9797 9794 9791 9787 9783 9780 9777 9774 9772 9770 9767 9765
10390 10381 10373 10365 10356 10346 10336 10327 10315 10304 10296 10290 10281 10272 10262 10249 10237 10229 10222 10213 10204 10196 10188 10179 10171 10162 10153 10145 10134 10124 10115 10106 10097 10088 10080 10071 10062 10053 10044 10035 10026 10017 10008 9999 9990 9981 9973 9964 9954 9944 9936 9930 9923 9916 9909 9902 9893 9885 9877 9870 9862 9853 9845 9838 9831 9825 9820 9815 9809 9804 9799 9795 9791 9788 9785 9783 9779 9776 9772 9768 9765 9763 9762 9760 9757 9755
10379 10369 10359 10349 10340 10331 10322 10311 10299 10287 10280 10274 10267 10258 10249 10237 10226 10218 10210 10202 10192 10182 10173 10165 10157 10147 10138 10130 10120 10110 10101 10092 10083 10075 10066 10058 10048 10039 10030 10021 10013 10005 9996 9988 9979 9971 9963 9953 9944 9934 9924 9917 9910 9903 9896 9889 9882 9873 9865 9858 9851 9843 9835 9827 9821 9815 9809 9804 9799 9793 9788 9784 9780 9777 9774 9772 9769 9766 9762 9758 9754 9752 9751 9750 9748 9746
10365 10356 10345 10334 10323 10313 10305 10295 10283 10271 10262 10256 10250 10242 10232 10220 10210 10201 10193 10185 10177 10167 10158 10150 10143 10133 10124 10116 10106 10096 10088 10080 10071 10063 10055 10047 10038 10028 10019 10011 10002 9994 9985 9977 9968 9960 9951 9941 9932 9923 9913 9904 9896 9889 9881 9874 9868 9861 9854 9847 9840 9833 9826 9819 9811 9805 9800 9795 9789 9784 9779 9774 9770 9767 9765 9763 9760 9757 9753 9748 9745 9743 9742 9741 9739 9737
10352 10341 10331 10320 10309 10298 10288 10278 10267 10256 10246 10238 10231 10224 10213 10202 10193 10185 10177 10168 10161 10152 10143 10135 10129 10121 10112 10104 10095 10086 10077 10070 10061 10052 10044 10036 10027 10018 10010 10001 9992 9983 9974 9966 9958 9949 9939 9930 9920 9911 9902 9892 9883 9876 9868 9861 9854 9849 9843 9837 9830 9823 9816 9809 9802 9796 9790 9785 9780 9775 9770 9765 9761 9757 9755 9753 9751 9749 9745 9740 9736 9734 9733 9732 9731 9729
10339 10329 10318 10307 10296 10285 10275 10265 10254 10243 10233 10225 10218 10211 10201 10189 10180 10172 10164 10156 10150 10142 10133 10125 10118 10111 10102 10094 10086 10077 10068 10060 10052 10043 10034 10026 10017 10008 10000 9991 9982 9972 9963 9955 9947 9939 9930 9920 9911 9902 9893 9884 9875 9867 9859 9851 9843 9837 9832 9826 9820 9813 9805 9798 9791 9786 9780 9775 9770 9765 9760 9756 9752 9748 9745 9743 9742 9740 9736 9732 9729 9727 9725 9723 9722 9722
10325 10316 10306 10296 10285 10274 10264 10254 10243 10233 10222 10212 10206 10200 10191 10180 10171 10163 10155 10148 10141 10133 10125 10117 10109 10101 10092 10084 10076 10067 10058 10049 10041 10033 10024 10016 10008 9999 9990 9981 9971 9962 9952 9943 9935 9927 9919 9910 9901 9892 9883 9875 9867 9859 9851 9843 9834 9827 9822 9816 9810 9803 9796 9787 9780 9775 9770 9765 9760 9755 9751 9747 9743 9740 9736 9733 9732 9731 9728 9723 9720 9720 9718 9714 9714 9714
10313 10303 10294 10285 10274 10263 10253 10243 10233 10225 10215 10204 10197 10191 10183 10173 10164 10156 10147 10139 10131 10123 10114 10107 10098 10090 10082 10074 10065 10057 10047 10038 10029 10021 10013 10005 9997 9988 9979 9970 9960 9951 9942 9933 9924 9916 9908 9899 9891 9882 9873 9865 9858 9850 9842 9833 9824 9817 9811 9806 9800 9794 9788 9779 9771 9765 9759 9754 9750 9745 9741 9737 9734 9731 9728 9724 9721 9721 9721 9715 9710 9711 9711 9708 9705 9705
10300 10291 10282 10273 10263 10253 10243 10232 10223 10216 10209 10199 10191 10184 10176 10165 10156 10148 10139 10130 10121 10112 10104 10096 10088 10079 10070 10062 10053 10045 10036 10027 10018 10009 10000 9993 9985 9977 9968 9959 9950 9940 9931 9922 9913 9905 9896 9887 9879 9871 9862 9854 9847 9839 9831 9822 9814 9807 9801 9796 9790 9785 9779 9772 9764 9756 9750 9745 9741 9736 9731 9727 9724 9721 9719 9716 9712 9710 9711 9709 9703 9701 9702 9701 9698 9697
10289 10280 10270 10261 10253 10243 10233 10222 10212 10204 10197 10189 10181 10174 10166 10156 10146 10138 10129 10120 10111 10103 10094 10086 10078 10069 10060 10050 10041 10033 10025 10016 10007 9998 9989 9980 9973 9965 9955 9947 9938 9930 9921 9912 9904 9895 9886 9877 9868 9859 9851 9843 9836 9829 9821 9813 9805 9798 9792 9786 9781 9775 9770 9764 9757 9750 9743 9737 9732 9728 9723 9718 9715 9712 9709 9708 9705 9701 9700 9701 9698 9694 9693 9692 9691 9689